Hourly Data Report for September 02, 2003

SHERBROOKE A
QUEBEC

45°26'00.000" N
71°41'00.000" W
241.40 m
7028124
71610
YSC

Download Data

Hourly Data (September 2003)
Hourly Data Report for September 2, 2003
TIME
LST
Temp Definition
°C
Dew Point Definition
°C
Rel Hum Definition
%
Precip. Amount Definition
mm

Wind Dir Definition
10's deg

Wind Spd Definition
km/h
Visibility Definition
km
Stn Press Definition
kPa
Hmdx Definition


Wind Chill Definition


Weather Definition


00:00 12.2 11.2 94   4 7 15.0 99.28      
01:00 11.2 10.2 94     0 15.0 99.29      
02:00 10.4 9.6 95   3 4 15.0 99.28      
03:00 10.9 10.3 96   8 6 15.0 99.30      
04:00 11.1 10.4 95   7 6 15.0 99.29      
05:00 11.1 10.2 94   6 7 15.0 99.31      
06:00 11.1 10.1 94   6 7 15.0 99.34      
07:00 11.5 10.5 94   6 9 24.1 99.38     Mostly Cloudy
08:00 13.7 11.1 84   5 9 24.1 99.40     Mostly Cloudy
09:00 15.8 11.8 77   6 7 24.1 99.39     Mainly Clear
10:00 18.3 11.1 63   12 4 24.1 99.39     Mainly Clear
11:00 19.8 11.4 58     0 24.1 99.34     Mostly Cloudy
12:00 19.9 10.1 53   31 9 24.1 99.29     Mainly Clear
13:00 21.1 10.1 49   27 11 24.1 99.25     Mainly Clear
14:00 21.5 10.2 49   28 7 24.1 99.22     Mainly Clear
15:00 19.7 10.9 57   32 7 24.1 99.22     Mainly Clear
16:00 20.5 10.9 54   35 13 24.1 99.22     Mainly Clear
17:00 19.8 11.3 58   32 7 15.0 99.22      
18:00 17.3 11.1 67   32 7 15.0 99.27      
19:00 12.5 9.9 84     0 15.0 99.31      
20:00 9.3 7.9 91     0 15.0 99.34      
21:00 8.7 7.6 93   13 6 15.0 99.34      
22:00 8.7 8.1 96     0 15.0 99.36      
23:00 9.5 8.6 94     0 15.0 99.38      

Notes on Data Quality.

Legend

  • E = Estimated
  • M = Missing
  • NA = Not Available*
  • [empty] = Indicates an unobserved value
Date modified: